Location: Dennehotso
(36.8461°N, 109.8435°W)
Time: 21:37:12
(UTC+00:00)

ISS - Pass Details

Date: 12 March 2021
Orbit: 418 x 422 km, 51.6° (Epoch: 16 April)

Event Time Altitude Azimuth Distance (km) Brightness Sun altitude
Exits shadow 12:33:44 19° 297° (WNW) 1,068 -2.2 -12.9°
Maximum altitude 12:35:55 54° 224° (SW) 510 -3.6 -12.5°
Drops below altitude 10° 12:39:11 10° 146° (SE) 1,487 -0.6 -11.8°
Sets 12:41:18 0° 142° (SE) 2,347 0.5 -11.4°
